When you browse on this site, cookies collect data to enhance your experience and personalize the content and advertising you see.
Visit our Privacy Policy to learn more. By continuing to use the site, you agree to this use of cookies and data.
  • In Slovakia
  • List of Countries
  • For 7 days
  • Water Temperature
  • Weather Map
  • Weather Widgets
  • user-avatar
    Login

    Hourly Weather Encamp

    Today, 8 December, Sunday

    Time Temperature Precipitation Wind Pressure Humidity
    00:00 +2°C° 0 mm 1 mps 625 mmHg 75%
    01:00 +2°C° 0 mm 1 mps 624 mmHg 74%
    02:00 +2°C° 0 mm 1 mps 624 mmHg 74%
    03:00 +2°C° 0 mm 1 mps 624 mmHg 74%
    04:00 +2°C° 0 mm 1 mps 624 mmHg 72%
    05:00 +2°C° 0 mm 1 mps 624 mmHg 70%
    06:00 +2°C° 0 mm 1 mps 624 mmHg 68%
    07:00 +3°C° 0 mm 1 mps 624 mmHg 66%
    08:00 +4°C° 0 mm 1 mps 625 mmHg 64%
    09:00 +5°C° 0 mm 0 mps 625 mmHg 62%
    10:00 +6°C° 0 mm 0 mps 626 mmHg 61%
    11:00 +8°C° 0 mm 1 mps 626 mmHg 60%
    12:00 +9°C° 0 mm 1 mps 626 mmHg 60%
    13:00 +8°C° 0 mm 1 mps 625 mmHg 66%
    14:00 +8°C° 0 mm 1 mps 625 mmHg 72%
    15:00 +7°C° 0 mm 1 mps 624 mmHg 78%
    16:00 +6°C° 0 mm 1 mps 624 mmHg 81%
    17:00 +5°C° 0 mm 1 mps 624 mmHg 83%
    18:00 +3°C° 0 mm 2 mps 624 mmHg 86%
    19:00 +3°C° 0.2 mm 2 mps 624 mmHg 88%
    20:00 +4°C° 0.2 mm 1 mps 624 mmHg 90%
    21:00 +4°C° 0.2 mm 1 mps 624 mmHg 92%
    22:00 +4°C° 0 mm 1 mps 624 mmHg 92%
    23:00 +3°C° 0 mm 2 mps 624 mmHg 91%

    Tomorrow, 9 December, Monday

    Time Temperature Precipitation Wind Pressure Humidity
    00:00 +2°C° 0 mm 2 mps 624 mmHg 91%
    01:00 +1°C° 0 mm 2 mps 624 mmHg 79%
    02:00 +1°C° 0 mm 2 mps 623 mmHg 68%
    03:00 -1°C° 0 mm 2 mps 623 mmHg 56%
    04:00 -1°C° 0 mm 2 mps 623 mmHg 56%
    05:00 -2°C° 0 mm 2 mps 623 mmHg 56%
    06:00 -2°C° 0 mm 2 mps 623 mmHg 56%
    07:00 -1°C° 0.2 mm 3 mps 623 mmHg 63%
    08:00 -1°C° 0.2 mm 3 mps 623 mmHg 70%
    09:00 -1°C° 0.2 mm 4 mps 624 mmHg 77%
    10:00 -1°C° 0.7 mm 4 mps 624 mmHg 76%
    11:00 0°C° 0.7 mm 4 mps 624 mmHg 76%
    12:00 0°C° 0.7 mm 4 mps 624 mmHg 76%
    13:00 -1°C° 0.8 mm 4 mps 624 mmHg 78%
    14:00 -1°C° 0.8 mm 4 mps 624 mmHg 80%
    15:00 -2°C° 0.8 mm 4 mps 624 mmHg 82%
    16:00 -2°C° 0.7 mm 4 mps 624 mmHg 86%
    17:00 -3°C° 0.7 mm 4 mps 624 mmHg 89%
    18:00 -3°C° 0.7 mm 4 mps 624 mmHg 93%
    19:00 -3°C° 0.3 mm 4 mps 625 mmHg 91%
    20:00 -4°C° 0.3 mm 4 mps 625 mmHg 89%
    21:00 -4°C° 0.3 mm 4 mps 625 mmHg 88%
    22:00 -4°C° 0.1 mm 4 mps 625 mmHg 87%
    23:00 -4°C° 0.1 mm 4 mps 626 mmHg 86%

    Day after tomorrow, 10 December, Tuesday

    Time Temperature Precipitation Wind Pressure Humidity
    00:00 -4°C° 0.1 mm 4 mps 626 mmHg 86%
    01:00 -4°C° 0 mm 4 mps 625 mmHg 85%
    02:00 -5°C° 0 mm 4 mps 625 mmHg 84%
    03:00 -5°C° 0 mm 4 mps 625 mmHg 84%
    04:00 -5°C° 0 mm 3 mps 625 mmHg 79%
    05:00 -5°C° 0 mm 3 mps 625 mmHg 74%
    06:00 -6°C° 0 mm 3 mps 625 mmHg 69%
    07:00 -4°C° 0 mm 3 mps 625 mmHg 63%
    08:00 -2°C° 0 mm 3 mps 626 mmHg 57%
    09:00 +1°C° 0 mm 2 mps 627 mmHg 51%
    10:00 +2°C° 0 mm 2 mps 627 mmHg 52%
    11:00 +4°C° 0 mm 2 mps 627 mmHg 53%
    12:00 +7°C° 0 mm 1 mps 627 mmHg 53%
    13:00 +6°C° 0 mm 1 mps 627 mmHg 56%
    14:00 +6°C° 0 mm 1 mps 626 mmHg 60%
    15:00 +5°C° 0 mm 1 mps 626 mmHg 63%
    16:00 +4°C° 0 mm 1 mps 625 mmHg 58%
    17:00 +1°C° 0 mm 2 mps 624 mmHg 53%
    18:00 -1°C° 0 mm 2 mps 624 mmHg 48%
    19:00 -1°C° 0 mm 2 mps 624 mmHg 46%
    20:00 -1°C° 0 mm 2 mps 624 mmHg 45%
    21:00 -1°C° 0 mm 2 mps 624 mmHg 43%
    22:00 -1°C° 0 mm 2 mps 624 mmHg 44%
    23:00 -1°C° 0 mm 2 mps 624 mmHg 44%

    11 December, Wednesday

    Time Temperature Precipitation Wind Pressure Humidity
    00:00 +1°C° 0 mm 2 mps 624 mmHg 45%
    01:00 +2°C° 0 mm 1 mps 623 mmHg 45%
    02:00 +2°C° 0 mm 1 mps 623 mmHg 45%
    03:00 +2°C° 0 mm 1 mps 623 mmHg 45%
    04:00 +2°C° 0 mm 1 mps 622 mmHg 46%
    05:00 +1°C° 0 mm 1 mps 622 mmHg 47%
    06:00 +1°C° 0 mm 1 mps 622 mmHg 49%
    07:00 +2°C° 0 mm 1 mps 622 mmHg 53%
    08:00 +3°C° 0 mm 1 mps 623 mmHg 58%
    09:00 +4°C° 0 mm 1 mps 624 mmHg 63%
    10:00 +4°C° 0.1 mm 1 mps 624 mmHg 65%
    11:00 +3°C° 0.1 mm 2 mps 624 mmHg 68%
    12:00 +3°C° 0.1 mm 2 mps 624 mmHg 70%
    13:00 +3°C° 0.4 mm 2 mps 624 mmHg 75%
    14:00 +2°C° 0.4 mm 2 mps 623 mmHg 80%
    15:00 +2°C° 0.4 mm 2 mps 623 mmHg 85%
    16:00 +1°C° 0.1 mm 2 mps 623 mmHg 87%
    17:00 -2°C° 0.1 mm 2 mps 623 mmHg 90%
    18:00 -3°C° 0.1 mm 2 mps 622 mmHg 93%
    19:00 -4°C° 0 mm 2 mps 622 mmHg 92%
    20:00 -4°C° 0 mm 2 mps 622 mmHg 91%
    21:00 -5°C° 0 mm 2 mps 622 mmHg 90%
    22:00 -5°C° 0 mm 2 mps 622 mmHg 86%
    23:00 -6°C° 0 mm 2 mps 622 mmHg 81%

    12 December, Thursday

    Time Temperature Precipitation Wind Pressure Humidity
    00:00 -6°C° 0 mm 2 mps 621 mmHg 77%
    01:00 -5°C° 0.1 mm 2 mps 621 mmHg 79%
    02:00 -5°C° 0.1 mm 2 mps 621 mmHg 81%
    03:00 -4°C° 0.1 mm 2 mps 621 mmHg 84%
    04:00 -4°C° 0.2 mm 2 mps 622 mmHg 86%
    05:00 -4°C° 0.2 mm 2 mps 622 mmHg 87%
    06:00 -4°C° 0.2 mm 2 mps 622 mmHg 89%
    07:00 -1°C° 0.3 mm 1 mps 622 mmHg 86%
    08:00 0°C° 0.3 mm 1 mps 623 mmHg 83%
    09:00 +1°C° 0.3 mm 1 mps 623 mmHg 80%
    10:00 +2°C° 0 mm 1 mps 623 mmHg 77%
    11:00 +3°C° 0 mm 1 mps 624 mmHg 73%
    12:00 +4°C° 0 mm 1 mps 624 mmHg 69%
    13:00 +3°C° 0 mm 1 mps 623 mmHg 72%
    14:00 +3°C° 0 mm 1 mps 623 mmHg 75%
    15:00 +3°C° 0 mm 1 mps 622 mmHg 78%
    16:00 +1°C° 0 mm 1 mps 622 mmHg 82%
    17:00 0°C° 0 mm 1 mps 621 mmHg 86%
    18:00 -2°C° 0 mm 1 mps 620 mmHg 90%
    19:00 -2°C° 0 mm 1 mps 620 mmHg 89%
    20:00 -2°C° 0 mm 1 mps 620 mmHg 88%
    21:00 -2°C° 0 mm 1 mps 620 mmHg 87%
    22:00 -1°C° 0.1 mm 1 mps 620 mmHg 85%
    23:00 -1°C° 0.1 mm 1 mps 620 mmHg 84%

    13 December, Friday

    Time Temperature Precipitation Wind Pressure Humidity
    00:00 0°C° 0.1 mm 1 mps 620 mmHg 82%
    01:00 +1°C° 1.1 mm 1 mps 619 mmHg 86%
    02:00 +1°C° 1.1 mm 1 mps 619 mmHg 89%
    03:00 +2°C° 1.1 mm 1 mps 619 mmHg 93%
    04:00 +2°C° 0.5 mm 1 mps 619 mmHg 94%
    05:00 +3°C° 0.5 mm 1 mps 619 mmHg 95%
    06:00 +3°C° 0.5 mm 1 mps 619 mmHg 96%
    07:00 +4°C° 0.2 mm 1 mps 619 mmHg 95%
    08:00 +4°C° 0.2 mm 1 mps 620 mmHg 94%
    09:00 +5°C° 0.2 mm 1 mps 620 mmHg 94%
    10:00 +5°C° 0.5 mm 1 mps 620 mmHg 93%
    11:00 +5°C° 0.5 mm 1 mps 620 mmHg 93%
    12:00 +5°C° 0.5 mm 1 mps 620 mmHg 93%
    13:00 +5°C° 0.4 mm 1 mps 620 mmHg 94%
    14:00 +5°C° 0.4 mm 1 mps 620 mmHg 95%
    15:00 +5°C° 0.4 mm 1 mps 620 mmHg 96%
    16:00 +5°C° 0.2 mm 1 mps 620 mmHg 96%
    17:00 +4°C° 0.2 mm 1 mps 620 mmHg 96%
    18:00 +4°C° 0.2 mm 1 mps 620 mmHg 96%
    19:00 +4°C° 0 mm 1 mps 620 mmHg 95%
    20:00 +4°C° 0 mm 1 mps 621 mmHg 95%
    21:00 +3°C° 0 mm 1 mps 621 mmHg 94%
    22:00 +3°C° 0 mm 1 mps 621 mmHg 93%
    23:00 +3°C° 0 mm 1 mps 621 mmHg 91%
    Show more